Location: Val-d'Or
(48.1170°N, 77.7670°W)
Time: 10:05:48
(UTC-04:00)

ISS - Pass Details

Date: 22 May 2018
Orbit: 402 x 407 km, 51.6° (Epoch: 23 May)

Event Time Altitude Azimuth Distance (km) Brightness Sun altitude
Rises 00:02:20 0° 265° (W) 2,316 0.2 -20.0°
Reaches altitude 10° 00:04:27 10° 270° (W) 1,457 -0.8 -20.1°
Maximum altitude 00:07:39 51° 348° (NNW) 513 -3.0 -20.2°
Drops below altitude 10° 00:10:51 10° 66° (ENE) 1,459 -0.9 -20.3°
Sets 00:12:58 0° 72° (ENE) 2,319 0.1 -20.4°
